Location: New Frontier Mobile Home Park
(32.8448°N, 116.9675°W)
Time: 22:34:25
(UTC+00:00)

Meteor 2-11 Rocket - Pass Details

Date: 14 July 2020
Orbit: 939 x 957 km, 82.5° (Epoch: 05 August)

Event Time Altitude Azimuth Distance (km) Brightness Sun altitude
Exits shadow 10:28:52 49° 187° (S) 1,193 4.6 -24.2°
Maximum altitude 10:30:38 89° 274° (W) 946 4.3 -24.0°
Drops below altitude 10° 10:36:44 10° 6° (N) 2,659 7.5 -23.1°
Sets 10:39:13 0° 7° (N) 3,605 8.3 -22.8°
